FDX5383 KPHL-KIND

Flight info

Callsign FDX5383
Flight time 1h 29m
Altitude 30000
Route MXE PENSY J110 FLIRT BRNAN Q42 HIDON RINTE SNKPT2
Aircraft B77L/H-SDE1E2E3FGHIJ2J3J4J5M1RWXY/LB1D1

Departure

Time 2026-05-06 18:10
Airport Philadelphia International Airport (KPHL)

Arrival

Time 2026-05-06 19:40
Airport Indianapolis International Airport (KIND)
Time Latitude Longitude Altitude Speed Heading
2026-05-06 17:42 39.86978 -75.26517 27 ft 0 kts 346°
2026-05-06 17:55 39.86971 -75.26515 26 ft 4 kts 346°
2026-05-06 17:55 39.86945 -75.26508 26 ft 4 kts 351°
2026-05-06 17:55 39.86926 -75.26501 26 ft 3 kts 312°
2026-05-06 17:56 39.86914 -75.26479 25 ft 4 kts 278°
2026-05-06 17:56 39.86915 -75.26447 25 ft 4 kts 256°
2026-05-06 17:56 39.86919 -75.26428 26 ft 1 kts 256°
2026-05-06 17:56 39.86919 -75.26426 26 ft 0 kts 256°
2026-05-06 18:02 39.86908 -75.26483 26 ft 11 kts 256°
2026-05-06 18:02 39.86875 -75.26567 28 ft 11 kts 215°
2026-05-06 18:03 39.86803 -75.26558 27 ft 11 kts 158°
2026-05-06 18:03 39.86776 -75.26476 30 ft 12 kts 75°
2026-05-06 18:03 39.86824 -75.26350 31 ft 16 kts 65°
2026-05-06 18:03 39.86858 -75.26208 29 ft 16 kts 75°
2026-05-06 18:04 39.86885 -75.26064 28 ft 16 kts 76°
2026-05-06 18:04 39.86913 -75.25920 28 ft 16 kts 75°
2026-05-06 18:04 39.86921 -75.25788 26 ft 14 kts 124°
2026-05-06 18:04 39.86829 -75.25737 26 ft 16 kts 165°
2026-05-06 18:05 39.86720 -75.25700 29 ft 16 kts 166°
2026-05-06 18:05 39.86611 -75.25660 30 ft 16 kts 153°
2026-05-06 18:05 39.86594 -75.25524 27 ft 16 kts 77°
2026-05-06 18:05 39.86622 -75.25380 28 ft 17 kts 76°
2026-05-06 18:06 39.86660 -75.25190 28 ft 24 kts 75°
2026-05-06 18:06 39.86701 -75.24985 30 ft 24 kts 75°
2026-05-06 18:06 39.86743 -75.24774 27 ft 24 kts 75°
2026-05-06 18:06 39.86784 -75.24566 26 ft 24 kts 75°
2026-05-06 18:07 39.86826 -75.24358 27 ft 24 kts 75°
2026-05-06 18:07 39.86868 -75.24150 26 ft 24 kts 75°
2026-05-06 18:07 39.86896 -75.24003 28 ft 12 kts 81°
2026-05-06 18:07 39.86889 -75.23967 24 ft 0 kts 117°
2026-05-06 18:08 39.86872 -75.23946 27 ft 10 kts 146°
2026-05-06 18:09 39.86805 -75.23956 22 ft 11 kts 223°
2026-05-06 18:09 39.86777 -75.24044 20 ft 11 kts 254°
2026-05-06 18:09 39.86736 -75.24243 24 ft 43 kts 255°
2026-05-06 18:09 39.86605 -75.24898 28 ft 105 kts 256°
2026-05-06 18:10 39.86371 -75.26043 25 ft 155 kts 254°
2026-05-06 18:10 39.86110 -75.27460 401 ft 157 kts 251°
2026-05-06 18:10 39.85841 -75.28858 940 ft 162 kts 251°
2026-05-06 18:10 39.85574 -75.30296 1492 ft 165 kts 252°
2026-05-06 18:11 39.85295 -75.31767 1961 ft 176 kts 251°
2026-05-06 18:11 39.84962 -75.33419 2198 ft 199 kts 251°
2026-05-06 18:11 39.84624 -75.35234 2616 ft 216 kts 253°
2026-05-06 18:11 39.84282 -75.37159 3407 ft 221 kts 254°
2026-05-06 18:12 39.83902 -75.39133 4129 ft 229 kts 253°
2026-05-06 18:12 39.83471 -75.41161 4752 ft 233 kts 253°
2026-05-06 18:12 39.83020 -75.43180 5013 ft 234 kts 253°
2026-05-06 18:12 39.82555 -75.45247 5010 ft 240 kts 253°
2026-05-06 18:13 39.82087 -75.47339 4994 ft 239 kts 253°
2026-05-06 18:13 39.81633 -75.49389 4993 ft 234 kts 253°
2026-05-06 18:13 39.81178 -75.51425 4999 ft 234 kts 253°
2026-05-06 18:13 39.80820 -75.53477 4977 ft 232 kts 269°
2026-05-06 18:14 39.81364 -75.55490 5008 ft 250 kts 304°
2026-05-06 18:14 39.82826 -75.56767 5370 ft 263 kts 328°
2026-05-06 18:14 39.84366 -75.58009 5970 ft 261 kts 313°
2026-05-06 18:14 39.85726 -75.59575 6678 ft 262 kts 310°
2026-05-06 18:15 39.87061 -75.61220 7404 ft 263 kts 309°
2026-05-06 18:15 39.88379 -75.62856 8094 ft 266 kts 309°
2026-05-06 18:15 39.89731 -75.64534 8768 ft 270 kts 309°
2026-05-06 18:15 39.91016 -75.66298 9463 ft 263 kts 295°
2026-05-06 18:16 39.91677 -75.68456 10103 ft 256 kts 276°
2026-05-06 18:16 39.91801 -75.70806 10509 ft 269 kts 266°
2026-05-06 18:16 39.91754 -75.73360 10663 ft 293 kts 265°
2026-05-06 18:16 39.91675 -75.76116 10854 ft 317 kts 265°
2026-05-06 18:17 39.91592 -75.79078 11275 ft 333 kts 265°
2026-05-06 18:17 39.91514 -75.82142 12001 ft 341 kts 265°
2026-05-06 18:17 39.91441 -75.85245 12907 ft 345 kts 266°
2026-05-06 18:17 39.91370 -75.88360 13802 ft 349 kts 266°
2026-05-06 18:18 39.91300 -75.91543 14576 ft 353 kts 266°
2026-05-06 18:18 39.91231 -75.94757 15375 ft 355 kts 266°
2026-05-06 18:18 39.91161 -75.97983 16170 ft 358 kts 266°
2026-05-06 18:18 39.91089 -76.01232 16943 ft 361 kts 266°
2026-05-06 18:19 39.91016 -76.04519 17702 ft 364 kts 266°
2026-05-06 18:19 39.90942 -76.07836 18430 ft 368 kts 267°
2026-05-06 18:19 39.90868 -76.11123 19111 ft 370 kts 267°
2026-05-06 18:19 39.90790 -76.14486 19838 ft 371 kts 267°
2026-05-06 18:20 39.90720 -76.17858 20581 ft 372 kts 268°
2026-05-06 18:20 39.90799 -76.21236 21264 ft 374 kts 271°
2026-05-06 18:20 39.90951 -76.24633 21892 ft 377 kts 271°
2026-05-06 18:20 39.91110 -76.28057 22570 ft 380 kts 271°
2026-05-06 18:21 39.91268 -76.31498 23277 ft 381 kts 271°
2026-05-06 18:21 39.91422 -76.34951 23856 ft 383 kts 271°
2026-05-06 18:21 39.91574 -76.38420 24437 ft 383 kts 271°
2026-05-06 18:21 39.91723 -76.41891 25026 ft 383 kts 271°
2026-05-06 18:22 39.91870 -76.45357 25607 ft 384 kts 271°
2026-05-06 18:22 39.92016 -76.48801 26148 ft 385 kts 271°
2026-05-06 18:22 39.92161 -76.52285 26686 ft 386 kts 271°
2026-05-06 18:22 39.92307 -76.55798 27222 ft 388 kts 271°
2026-05-06 18:23 39.92452 -76.59329 27757 ft 389 kts 271°
2026-05-06 18:23 39.92596 -76.62853 28261 ft 390 kts 271°
2026-05-06 18:23 39.92740 -76.66401 28740 ft 392 kts 271°
2026-05-06 18:23 39.93002 -76.69943 29196 ft 395 kts 275°
2026-05-06 18:24 39.93458 -76.73483 29611 ft 398 kts 278°
2026-05-06 18:24 39.94095 -76.76959 29805 ft 404 kts 280°
2026-05-06 18:24 39.95448 -76.84139 29840 ft 408 kts 280°
2026-05-06 18:25 39.96789 -76.91282 29849 ft 404 kts 279°
2026-05-06 18:25 39.98114 -76.98404 29848 ft 403 kts 279°
2026-05-06 18:26 39.99425 -77.05508 29847 ft 403 kts 279°
2026-05-06 18:26 40.00726 -77.12590 29850 ft 404 kts 279°
2026-05-06 18:27 40.02040 -77.19762 29842 ft 406 kts 279°
2026-05-06 18:27 40.03348 -77.26930 29840 ft 406 kts 279°
2026-05-06 18:28 40.04657 -77.34132 29842 ft 407 kts 279°
2026-05-06 18:28 40.05956 -77.41296 29844 ft 408 kts 279°
2026-05-06 18:29 40.07258 -77.48512 29831 ft 408 kts 279°
2026-05-06 18:29 40.08557 -77.55742 29845 ft 408 kts 279°
2026-05-06 18:30 40.09841 -77.62910 29838 ft 407 kts 279°
2026-05-06 18:30 40.11124 -77.70105 29830 ft 406 kts 279°
2026-05-06 18:31 40.12405 -77.77306 29841 ft 406 kts 279°
2026-05-06 18:31 40.13383 -77.84553 29836 ft 403 kts 273°
2026-05-06 18:32 40.13624 -77.91831 29847 ft 402 kts 269°
2026-05-06 18:32 40.13692 -77.99161 29833 ft 403 kts 269°
2026-05-06 18:33 40.13762 -78.06447 29839 ft 403 kts 269°
2026-05-06 18:33 40.13834 -78.13775 29858 ft 401 kts 269°
2026-05-06 18:34 40.13905 -78.21097 29845 ft 402 kts 269°
2026-05-06 18:34 40.13970 -78.28427 29845 ft 403 kts 269°
2026-05-06 18:35 40.14031 -78.35705 29862 ft 403 kts 269°
2026-05-06 18:35 40.14087 -78.43032 29863 ft 402 kts 269°
2026-05-06 18:36 40.14140 -78.50335 29859 ft 401 kts 269°
2026-05-06 18:36 40.14187 -78.57602 29874 ft 402 kts 269°
2026-05-06 18:37 40.14222 -78.63679 29874 ft 402 kts 269°
2026-05-06 18:37 40.14261 -78.71002 29866 ft 402 kts 269°
2026-05-06 18:38 40.14301 -78.79495 29867 ft 402 kts 269°
2026-05-06 18:38 40.14325 -78.85581 29864 ft 402 kts 269°
2026-05-06 18:39 40.14351 -78.92897 29873 ft 402 kts 269°
2026-05-06 18:40 40.14380 -79.03850 29877 ft 401 kts 269°
2026-05-06 18:40 40.14394 -79.11089 29891 ft 400 kts 269°
2026-05-06 18:41 40.14432 -79.18362 29910 ft 399 kts 270°
2026-05-06 18:41 40.14606 -79.25630 29918 ft 399 kts 270°
2026-05-06 18:42 40.14797 -79.32876 29917 ft 398 kts 270°
2026-05-06 18:42 40.14971 -79.40109 29919 ft 398 kts 270°
2026-05-06 18:43 40.15120 -79.46792 29927 ft 397 kts 270°
2026-05-06 18:43 40.15273 -79.54017 29913 ft 397 kts 270°
2026-05-06 18:44 40.15423 -79.61222 29911 ft 396 kts 270°
2026-05-06 18:44 40.15568 -79.68411 29927 ft 395 kts 270°
2026-05-06 18:45 40.15707 -79.75547 29925 ft 394 kts 270°
2026-05-06 18:45 40.15842 -79.82725 29915 ft 394 kts 270°
2026-05-06 18:46 40.15973 -79.89904 29913 ft 394 kts 270°
2026-05-06 18:46 40.16098 -79.97033 29915 ft 394 kts 270°
2026-05-06 18:47 40.16220 -80.04188 29938 ft 393 kts 269°
2026-05-06 18:47 40.16337 -80.11354 29949 ft 393 kts 269°
2026-05-06 18:48 40.16449 -80.18450 29960 ft 393 kts 269°
2026-05-06 18:48 40.16557 -80.25596 29956 ft 392 kts 269°
2026-05-06 18:49 40.16661 -80.32735 29955 ft 392 kts 269°
2026-05-06 18:49 40.16760 -80.39821 29959 ft 392 kts 269°
2026-05-06 18:50 40.16855 -80.46957 29944 ft 392 kts 269°
2026-05-06 18:50 40.16945 -80.54073 29935 ft 392 kts 269°
2026-05-06 18:51 40.17032 -80.61215 29936 ft 391 kts 269°
2026-05-06 18:51 40.17113 -80.68338 29942 ft 391 kts 269°
2026-05-06 18:52 40.17190 -80.75401 29934 ft 391 kts 269°
2026-05-06 18:52 40.17263 -80.82503 29943 ft 390 kts 269°
2026-05-06 18:53 40.17333 -80.89604 29936 ft 390 kts 269°
2026-05-06 18:53 40.17397 -80.96702 29939 ft 390 kts 269°
2026-05-06 18:54 40.17374 -81.03792 29942 ft 389 kts 268°
2026-05-06 18:54 40.17295 -81.10818 29944 ft 389 kts 268°
2026-05-06 18:55 40.17218 -81.17892 29943 ft 389 kts 268°
2026-05-06 18:55 40.17145 -81.24951 29947 ft 388 kts 268°
2026-05-06 18:56 40.17070 -81.32020 29951 ft 388 kts 268°
2026-05-06 18:56 40.16991 -81.39075 29956 ft 388 kts 268°
2026-05-06 18:57 40.16908 -81.46082 29953 ft 388 kts 268°
2026-05-06 18:57 40.16822 -81.53136 29961 ft 388 kts 268°
2026-05-06 18:58 40.16730 -81.60184 29968 ft 387 kts 268°
2026-05-06 18:58 40.16971 -81.67229 29958 ft 388 kts 272°
2026-05-06 18:59 40.17401 -81.74276 29973 ft 388 kts 272°
2026-05-06 18:59 40.17821 -81.81264 29962 ft 387 kts 271°
2026-05-06 19:00 40.18233 -81.88302 29959 ft 387 kts 271°
2026-05-06 19:00 40.18642 -81.95328 29958 ft 387 kts 271°
2026-05-06 19:01 40.19042 -82.02326 29957 ft 386 kts 271°
2026-05-06 19:01 40.19438 -82.09298 29960 ft 386 kts 271°
2026-05-06 19:02 40.19832 -82.16311 29966 ft 386 kts 271°
2026-05-06 19:02 40.20220 -82.23316 29963 ft 386 kts 271°
2026-05-06 19:03 40.20603 -82.30318 29974 ft 386 kts 271°
2026-05-06 19:03 40.20983 -82.37314 29965 ft 385 kts 271°
2026-05-06 19:04 40.21356 -82.44270 29966 ft 385 kts 271°
2026-05-06 19:04 40.21727 -82.51250 29967 ft 384 kts 271°
2026-05-06 19:05 40.22092 -82.58221 29969 ft 383 kts 271°
2026-05-06 19:05 40.22450 -82.65127 29977 ft 383 kts 271°
2026-05-06 19:06 40.22808 -82.72118 29978 ft 383 kts 271°
2026-05-06 19:06 40.23157 -82.79033 29973 ft 383 kts 271°
2026-05-06 19:07 40.23506 -82.86005 29983 ft 383 kts 271°
2026-05-06 19:07 40.23851 -82.92979 29980 ft 383 kts 271°
2026-05-06 19:08 40.24189 -82.99901 29983 ft 383 kts 270°
2026-05-06 19:08 40.24525 -83.06876 29979 ft 383 kts 270°
2026-05-06 19:09 40.24855 -83.13812 29989 ft 383 kts 270°
2026-05-06 19:09 40.25180 -83.20743 29977 ft 382 kts 270°
2026-05-06 19:10 40.25503 -83.27689 29982 ft 382 kts 270°
2026-05-06 19:10 40.25821 -83.34639 29984 ft 382 kts 270°
2026-05-06 19:11 40.26136 -83.41589 29982 ft 382 kts 270°
2026-05-06 19:11 40.26445 -83.48525 29988 ft 381 kts 270°
2026-05-06 19:12 40.26748 -83.55416 29986 ft 382 kts 270°
2026-05-06 19:12 40.27050 -83.62392 29995 ft 381 kts 270°
2026-05-06 19:13 40.27346 -83.69289 30000 ft 381 kts 270°
2026-05-06 19:13 40.27639 -83.76236 29995 ft 381 kts 270°
2026-05-06 19:14 40.27928 -83.83182 29994 ft 381 kts 270°
2026-05-06 19:14 40.28211 -83.90084 30000 ft 381 kts 270°
2026-05-06 19:15 40.28492 -83.97015 29997 ft 380 kts 270°
2026-05-06 19:15 40.28765 -84.03941 30003 ft 380 kts 269°
2026-05-06 19:16 40.28635 -84.10790 30001 ft 378 kts 265°
2026-05-06 19:16 40.28367 -84.17687 30008 ft 378 kts 265°
2026-05-06 19:17 40.28111 -84.24576 30012 ft 378 kts 265°
2026-05-06 19:17 40.27868 -84.31466 30008 ft 376 kts 265°
2026-05-06 19:17 40.27753 -84.34803 29996 ft 365 kts 265°
2026-05-06 19:18 40.27640 -84.38061 29981 ft 350 kts 265°
2026-05-06 19:18 40.27531 -84.41190 29673 ft 340 kts 265°
2026-05-06 19:18 40.27422 -84.44249 29215 ft 333 kts 265°
2026-05-06 19:18 40.27313 -84.47251 28662 ft 328 kts 265°
2026-05-06 19:19 40.27204 -84.50236 28055 ft 327 kts 265°
2026-05-06 19:19 40.27095 -84.53214 27446 ft 329 kts 265°
2026-05-06 19:19 40.26982 -84.56249 26832 ft 338 kts 265°
2026-05-06 19:19 40.26868 -84.59312 26224 ft 342 kts 265°
2026-05-06 19:20 40.26754 -84.62417 25608 ft 340 kts 265°
2026-05-06 19:20 40.26639 -84.65509 25008 ft 338 kts 265°
2026-05-06 19:20 40.26524 -84.68565 24409 ft 335 kts 265°
2026-05-06 19:20 40.26410 -84.71584 23906 ft 332 kts 264°
2026-05-06 19:21 40.26299 -84.74577 23476 ft 326 kts 264°
2026-05-06 19:21 40.26190 -84.77528 23041 ft 323 kts 265°
2026-05-06 19:21 40.26079 -84.80494 22640 ft 328 kts 265°
2026-05-06 19:21 40.25966 -84.83471 22250 ft 332 kts 265°
2026-05-06 19:22 40.25851 -84.86506 21857 ft 334 kts 265°
2026-05-06 19:22 40.25736 -84.89542 21448 ft 333 kts 265°
2026-05-06 19:22 40.25621 -84.92572 21057 ft 333 kts 265°
2026-05-06 19:22 40.25504 -84.95605 20661 ft 333 kts 265°
2026-05-06 19:23 40.25389 -84.98584 20277 ft 333 kts 265°
2026-05-06 19:23 40.25270 -85.01614 19883 ft 333 kts 265°
2026-05-06 19:23 40.25151 -85.04659 19501 ft 334 kts 265°
2026-05-06 19:23 40.25031 -85.07698 19101 ft 334 kts 265°
2026-05-06 19:24 40.24910 -85.10744 18707 ft 335 kts 265°
2026-05-06 19:24 40.24788 -85.13804 18311 ft 336 kts 265°
2026-05-06 19:24 40.24706 -85.15826 18013 ft 336 kts 265°
2026-05-06 19:24 40.24541 -85.19881 17430 ft 336 kts 265°
2026-05-06 19:25 40.24414 -85.22946 17010 ft 335 kts 265°
2026-05-06 19:25 40.24331 -85.24954 16748 ft 334 kts 265°
2026-05-06 19:25 40.24205 -85.27992 16355 ft 333 kts 265°
2026-05-06 19:25 40.24078 -85.31017 15957 ft 331 kts 265°
2026-05-06 19:26 40.23910 -85.35002 15434 ft 330 kts 265°
2026-05-06 19:26 40.23823 -85.36993 15176 ft 328 kts 264°
2026-05-06 19:26 40.23394 -85.39901 14783 ft 325 kts 251°
2026-05-06 19:26 40.22444 -85.42595 14414 ft 327 kts 243°
2026-05-06 19:27 40.21315 -85.45178 14027 ft 327 kts 242°
2026-05-06 19:27 40.20175 -85.47755 13617 ft 328 kts 242°
2026-05-06 19:27 40.19030 -85.50357 13202 ft 329 kts 242°
2026-05-06 19:27 40.17897 -85.52952 12798 ft 329 kts 242°
2026-05-06 19:28 40.16766 -85.55560 12418 ft 329 kts 242°
2026-05-06 19:28 40.15659 -85.58115 12034 ft 324 kts 242°
2026-05-06 19:28 40.14555 -85.60667 11644 ft 319 kts 242°
2026-05-06 19:28 40.13474 -85.63172 11301 ft 314 kts 242°
2026-05-06 19:29 40.12419 -85.65638 10986 ft 308 kts 242°
2026-05-06 19:29 40.11388 -85.68055 10680 ft 302 kts 242°
2026-05-06 19:29 40.10371 -85.70437 10384 ft 296 kts 242°
2026-05-06 19:29 40.09374 -85.72770 10100 ft 290 kts 242°
2026-05-06 19:30 40.08413 -85.75017 9886 ft 282 kts 242°
2026-05-06 19:30 40.07480 -85.77191 9692 ft 266 kts 242°
2026-05-06 19:30 40.06602 -85.79234 9404 ft 251 kts 242°
2026-05-06 19:30 40.05753 -85.81205 9036 ft 248 kts 241°
2026-05-06 19:31 40.04849 -85.83115 8754 ft 243 kts 239°
2026-05-06 19:31 40.03957 -85.84943 8511 ft 240 kts 239°
2026-05-06 19:31 40.02069 -85.88499 8141 ft 233 kts 233°
2026-05-06 19:32 40.01006 -85.90118 8141 ft 239 kts 232°
2026-05-06 19:32 39.99886 -85.91808 7860 ft 252 kts 232°
2026-05-06 19:32 39.98736 -85.93547 7537 ft 254 kts 232°
2026-05-06 19:32 39.97581 -85.95300 7173 ft 253 kts 232°
2026-05-06 19:33 39.96442 -85.97036 6856 ft 251 kts 232°
2026-05-06 19:33 39.95314 -85.98759 6530 ft 248 kts 232°
2026-05-06 19:33 39.94205 -86.00455 6208 ft 249 kts 232°
2026-05-06 19:33 39.93078 -86.02184 5884 ft 251 kts 232°
2026-05-06 19:34 39.91942 -86.03926 5557 ft 253 kts 232°
2026-05-06 19:34 39.90817 -86.05648 5441 ft 243 kts 232°
2026-05-06 19:34 39.89744 -86.07287 5302 ft 230 kts 232°
2026-05-06 19:34 39.88718 -86.08822 5088 ft 220 kts 230°
2026-05-06 19:35 39.87663 -86.10264 4803 ft 221 kts 228°
2026-05-06 19:35 39.86577 -86.11679 4478 ft 220 kts 227°
2026-05-06 19:35 39.85502 -86.13060 4198 ft 218 kts 227°
2026-05-06 19:35 39.84436 -86.14426 3885 ft 210 kts 227°
2026-05-06 19:36 39.83440 -86.15700 3606 ft 191 kts 227°
2026-05-06 19:36 39.82536 -86.16858 3389 ft 176 kts 228°
2026-05-06 19:36 39.81677 -86.17962 3179 ft 172 kts 228°
2026-05-06 19:36 39.80818 -86.19065 2963 ft 175 kts 227°
2026-05-06 19:37 39.79948 -86.20183 2714 ft 175 kts 227°
2026-05-06 19:37 39.79085 -86.21286 2478 ft 173 kts 227°
2026-05-06 19:37 39.78229 -86.22383 2246 ft 172 kts 228°
2026-05-06 19:37 39.77382 -86.23468 2101 ft 170 kts 228°
2026-05-06 19:38 39.76559 -86.24522 1874 ft 163 kts 228°
2026-05-06 19:38 39.75785 -86.25511 1664 ft 150 kts 228°
2026-05-06 19:38 39.75061 -86.26442 1439 ft 142 kts 227°
2026-05-06 19:38 39.74362 -86.27328 1269 ft 139 kts 226°
2026-05-06 19:39 39.73686 -86.28186 1081 ft 138 kts 227°
2026-05-06 19:39 39.73003 -86.29065 890 ft 137 kts 227°
2026-05-06 19:39 39.72345 -86.29910 787 ft 124 kts 225°
2026-05-06 19:39 39.71837 -86.30558 770 ft 80 kts 224°
2026-05-06 19:40 39.71566 -86.30899 771 ft 26 kts 223°
2026-05-06 19:40 39.71418 -86.31005 767 ft 22 kts 185°
2026-05-06 19:40 39.71341 -86.30992 766 ft 0 kts 154°
2026-05-06 19:41 39.71335 -86.30987 765 ft 3 kts 150°
2026-05-06 19:42 39.71322 -86.30926 765 ft 9 kts 69°
2026-05-06 19:42 39.71374 -86.30849 769 ft 17 kts 45°
2026-05-06 19:42 39.71470 -86.30726 770 ft 20 kts 44°
2026-05-06 19:42 39.71568 -86.30601 771 ft 20 kts 44°
2026-05-06 19:43 39.71666 -86.30477 771 ft 20 kts 44°
2026-05-06 19:43 39.71764 -86.30352 773 ft 20 kts 44°
2026-05-06 19:43 39.71862 -86.30227 775 ft 20 kts 44°
2026-05-06 19:43 39.71958 -86.30103 780 ft 20 kts 45°
2026-05-06 19:44 39.72056 -86.29978 783 ft 20 kts 44°
2026-05-06 19:44 39.72153 -86.29854 785 ft 20 kts 44°
2026-05-06 19:44 39.72235 -86.29746 786 ft 14 kts 56°
2026-05-06 19:44 39.72207 -86.29635 786 ft 14 kts 131°
2026-05-06 19:45 39.72116 -86.29512 788 ft 22 kts 135°
2026-05-06 19:45 39.72009 -86.29372 790 ft 22 kts 135°
2026-05-06 19:45 39.71902 -86.29231 789 ft 22 kts 135°
2026-05-06 19:45 39.71795 -86.29090 791 ft 22 kts 135°
2026-05-06 19:46 39.71688 -86.28950 796 ft 22 kts 134°
2026-05-06 19:46 39.71603 -86.28835 799 ft 15 kts 129°
2026-05-06 19:46 39.71618 -86.28712 800 ft 15 kts 50°
2026-05-06 19:46 39.71702 -86.28603 799 ft 18 kts 45°
2026-05-06 19:47 39.71747 -86.28463 798 ft 18 kts 113°
2026-05-06 19:47 39.71661 -86.28339 799 ft 18 kts 135°
2026-05-06 19:47 39.71605 -86.28214 802 ft 16 kts 84°
2026-05-06 19:47 39.71650 -86.28081 803 ft 16 kts 52°
2026-05-06 19:48 39.71672 -86.27974 802 ft 10 kts 95°
2026-05-06 19:48 39.71694 -86.27897 801 ft 4 kts 51°
2026-05-06 19:48 39.71690 -86.27859 801 ft 5 kts 115°
2026-05-06 19:48 39.71677 -86.27835 801 ft 3 kts 129°
2026-05-06 19:49 39.71664 -86.27816 801 ft 2 kts 132°